Regional Weather Roundup
Issued by NWS Midland/Odessa, TX

Skip options and go directly to product.
Home | Oldest Version | Previous Version | Current Version | All | Graphics & Text | Save Text | Print | Product List | Glossary On

Skip product version selection by date and time.   
828
ASUS44 KMAF 092310
RWRMAF
MIDLAND AREA WEATHER ROUNDUP
NATIONAL WEATHER SERVICE MIDLAND TX
500 PM CST FRI DEC 09 2016

...IN SOUTHWEST TEXAS AND SOUTHEAST NEW MEXICO...

CITY           SKY/WX    TMP DP  RH WIND       PRES   REMARKS
ALPINE         PTCLDY    49  35  57 SW13      30.35F
ANDREWS        FAIR      43  32  63 S10       30.30S WCI  38
ARTESIA        PTCLDY    37  34  87 S7        30.27S WCI  32
BIG SPRING     CLEAR     44  31  61 S14       30.33F WCI  37
CARLSBAD       CLEAR     44  37  76 SE8       30.24F WCI  39
DRYDEN           N/A     45  32  60 SE8       30.36S
FORT STOCKTON  CLEAR     50  37  61 E6        30.29F
GUAD PASS      NOT AVBL
HOBBS          PTCLDY    39  32  75 S14       30.27F WCI  31
MARFA          CLEAR     48  34  58 S12       30.31F
MIDLAND AIRPK  CLEAR     45  32  60 S7        30.31F
MIDLAND INTL   CLEAR     45  31  58 SW9       30.30F
ODESSA         CLEAR     45  31  58 S9        30.30F
PECOS          CLEAR     49  37  63 SE6       30.30S
PRESIDIO       CLOUDY    48  33  56 CALM      30.34S
SEMINOLE       CLEAR     42  32  68 SW10G16   30.29S WCI  36
SNYDER         MOCLDY    38  27  62 S10       30.33F WCI  32
WINK           CLEAR     46  35  65 S7        30.28F
$$
...OTHER STATIONS IN TEXAS...

CITY           SKY/WX    TMP DP  RH WIND       PRES   REMARKS
ABILENE        CLEAR     41  22  46 S12       30.40F WCI  34
AMARILLO       CLEAR     39  29  67 SE14      30.21R WCI  31
AUSTIN         MOCLDY    45  22  40 NE7       30.49F
BROWNSVILLE    CLOUDY    46  34  62 NW16G22   30.47R WCI  39
CORPUS CHRISTI CLOUDY    48  29  47 N6        30.50S
DALLAS FTW     MOCLDY    38  13  35 SE7       30.50F WCI  33
DEL RIO        CLEAR     45  30  55 SE7       30.44F
EL PASO        MOSUNNY   46  31  55 CALM      30.30F
HOUSTON INT    MOCLDY    48  26  42 N7        30.51R
LUBBOCK        PTCLDY    41  30  65 SW17      30.24F WCI  32
SAN ANGELO     CLOUDY    47  27  45 S8        30.39R
SAN ANTONIO    CLOUDY    45  19  35 E6        30.48F
WACO           CLOUDY    44  22  41 CALM      30.51R
WICHITA FALLS  NOT AVBL
$$
...OTHER LOCATIONS IN NEW MEXICO...

CITY           SKY/WX    TMP DP  RH WIND       PRES   REMARKS
ALAMAGORDO     NOT AVBL
ALBUQUERQUE    CLOUDY    45  27  49 SW7       30.28S
CANNON AFB     CLOUDY    48  30  49 SW14      30.18S
CLOVIS         CLOUDY    48  28  46 SW16      30.18S
HOLLOMAN AFB   CLEAR     46  28  50 CALM      30.34F
ROSWELL        CLEAR     36  28  73 S10       30.25F WCI  28
RUIDOSO        CLEAR     48  25  40 NW5       30.29R
SANTA FE       CLOUDY    45  24  43 W9        30.25S
TRUTH OR CONSE SUNNY     49  29  46 S7        30.26F
TUCUMCARI      CLOUDY    55  30  38 SW13      30.10S
$$